Location: ????????
(55.5667°N, 37.5833°E)
Time: 19:58:44
(UTC+00:00)

NOSS 3-4 (A) - Pass Details

Date: 14 April 2026
Orbit: 769 x 1442 km, 63.4° (Epoch: 10 January)

Event Time Altitude Azimuth Distance (km) Brightness Sun altitude
Rises 23:37:48 0° 298° (WNW) 3,468 6.3 -19.5°
Reaches altitude 10° 23:40:14 10° 304° (NW) 2,603 5.7 -19.3°
Maximum altitude 23:46:09 50° 20° (NNE) 1,272 4.5 -18.8°
Drops below altitude 10° 23:53:07 10° 95° (E) 3,054 6.5 -18.2°
Sets 23:56:11 0° 101° (E) 4,121 7.1 -18.0°
